Regional Weather Roundup
Issued by NWS Newport/Morehead, NC

Current Version | Previous Version | Graphics & Text | Print | Product List | Glossary Off
Versions: 1 2 3 4 5 6 7 8 9 10 11 12 13 14 15 16 17 18 19 20 21 22 23 24 25 26 27 28 29 30 31 32 33 34 35 36 37 38 39 40 41 42 43 44 45 46 47 48 49 50

000
ASUS42 KMHX 301113
RWRMHX
WEATHER ROUNDUP FOR EASTERN NORTH CAROLINA
NATIONAL WEATHER SERVICE NEWPORT/MOREHEAD CITY NC
700 AM EDT THU JUL 30 2015

NOTE: "FAIR" INDICATES FEW OR NO CLOUDS BELOW 12,000 FEET
WITH NO SIGNIFICANT WEATHER AND/OR OBSTRUCTIONS TO VISIBILITY

NCZ015>017-031-032-045>047-102-103-301200-
NORTH COAST

CITY           SKY/WX    TMP DP  RH WIND       PRES   REMARKS
EDENTON        CLEAR     70  69  96 CALM      29.96R
ELIZABETH CITY CLEAR     75  74  96 CALM      29.96R
KITTY HAWK     SUNNY     78  75  90 E3        29.94S
MANTEO         CLEAR     78  76  94 E3        29.95R

$$

NCZ045>047-081-094-103-104-301200-
CENTRAL COAST

CITY           SKY/WX    TMP DP  RH WIND       PRES   REMARKS
FRISCO         PTCLDY    78  75  90 CALM      29.94R
SWANQUARTER      N/A     77 N/A N/A N3        29.91S

$$

NCZ095-097-098-100-101-301200-
SOUTHERN COAST

CITY           SKY/WX    TMP DP  RH WIND       PRES   REMARKS
BEAUFORT       CLEAR     80  79  96 NE7       29.92R
CEDAR ISLAND     N/A     81 N/A N/A E5        29.97S
JACKSONVILLE   FOG       73  71  93 N5        29.93S VSB 1/2
PINEY ISLAND   SUNNY    N/A N/A N/A MISG      29.92R
WILMINGTON     PTCLDY    72  71  97 CALM      29.93S


$$

NCZ011>013-027>030-043-044-078>080-089-090>093-098-301200-
COASTAL PLAIN

CITY           SKY/WX    TMP DP  RH WIND       PRES   REMARKS
AHOSKIE        CLEAR     68  67  96 CALM      29.97R
CLINTON        CLEAR     72  72  99 CALM      29.96S
ELIZABETHTOWN  CLEAR     72  72 100 CALM      29.95S
GOLDSBORO      CLEAR     72  71  97 CALM      29.94S
GREENVILLE     CLEAR     70  70 100 CALM      29.98R FOG
HAVELOCK       MOCLDY    79  76  90 N7        29.94R
KENANSVILLE    CLEAR     69  68  96 CALM      29.97R
KINSTON        CLEAR     70  70 100 CALM      29.97R
NEW BERN       MOCLDY    75  73  93 N3        29.95R
RICHLANDS      PTCLDY    70  64  83 CALM      29.94S
ROCKY MOUNT    CLEAR     70  69  97 CALM      29.97R
WASHINGTON     CLEAR     70  69  97 CALM      29.96R
WHITEVILLE     CLEAR     71  70  95 CALM      29.94S

$$

AMZ130-135-150-152-154-156-158-170-250-252-270-ANZ085-086-088-633-658-670-301200-
MARINE OBSERVATIONS

STATION/POSITION TIME  TEMP    WIND        PRES    WAVE   SWELL
                       AIR SEA DIR/SP/G            HT/PER HT/PER
                 (UTC) (F)     (DEG/KT/KT) (MB)    (FT/S) (FT/S)
CHESAPEAKE LIGHT 1100   80     160/  7/  8 1015.1
64 E VA BEACH    1050   81 81  110/ 10/ 12 1013.9    3/ 6   3/ 6
DUCK             1000   77                   N/A
2 E DUCK         1011      72                N/A     2/10
OREGON INLET     1000   79                   N/A
13E OREGON INLT  1100      80                N/A     3/11
HATTERAS CG      1000   80                   N/A
DIAMOND BUOY     1050   83 85  170/ 14/ 17 1013.5    3/ 6   2/10
CAPE LOOKOUT     1100   81     100/  6/  7 1012.6
BEAUFORT LAB     1000   78                   N/A
30 SE NEW RVR IN NOT AVBL
27 SE WRIGHTSVLE 1000   76 82   20/  8/ 10   N/A
5 SE WRIGHTSVLE  1008   78 82  350/  8/ 10 1013.2
225 S CAPE HAT   1050   83 81  190/ 16/ 19 1015.1    7/ 8
41 SE CHARLESTON 1050   82 84  360/ 10/ 12 1012.6    3/ 8   3/ 8

$$



USA.gov is the U.S. government's official web portal to all federal, state and local government web resources and services.